星链-31259 (STARLINK-31259 )

导读

STARLINK-31259是美国SpaceX星链星座的一颗卫星,于2024年2月29日发射。作为星链互联网卫星网络的组成部分,它旨在为全球提供高速低延迟互联网服务,尤其覆盖偏远地区。星链项目通过批量发射卫星构建近地轨道星座,此卫星是该星座持续扩容中的一员,进一步推进了星链的全球覆盖布局。

基本信息
目录编号:
59076
目录名称:
STARLINK-31259
国际标识:
2024-041C
轨道中心:
EARTH
卫星名称:
星链-31259
卫星全名:
星链-31259 (STARLINK-31259 )
卫星状态:
在轨 (已飞行840 天)
发射日期:
2024-02-29 UTC
国别 :
美国 (US)
星等 :
--
轨道信息
数据来源 国际轨道数据 AOE轨道数据
星历时间 2026-06-16T20:57:56+0800
1天前
查看轨道信息
2026-06-14T02:00:00+0800
4天前
查看轨道信息
半长轴 6861.201km 6861.19km
偏心率 0.0000762 0.0000875
轨道倾角 43.004° 42.999°
近地点辐角 258.883° 212.841°
升交点赤经 112.090° 127.850°
平近点角 101.194° 265.004°
近地点 482.541km 482.452km
远地点 483.587km 483.654km
周期 94.267分钟 94.267分钟
每日圈数 15.275751 15.275789
详细信息
固有亮度:
5
最大亮度:
0.3
卫星平台:
Starlink v2.0 mini
覆盖范围:
全球
运营商:
太空探索技术公司
运营商所在国:
美国
制造商(研发单位):
太空探索技术公司
制造商所在国:
美国
使用方式:
暂无
卫星简介
星链(Starlink)计划是由太空探索技术公司(SpaceX)提出的一个巨型低轨卫星互联网星座项目,计划在2019年至2024年间在太空搭建由约1.2万颗卫星组成的“星链”网络,其中1584颗将部署在地球上空550千米处的近地轨道,并从2020年开始工作。该卫星仍在工作。
2D轨道图
3D轨道图
轨道高度分析图
轨道倾角分析图
轨道综合分析图
查看轨道综合分析图